Location: Little Baddow
(51.7333°N, 0.5667°E)
Time: 07:24:11
(UTC+00:00)

USA 234 - Pass Details

Date: 08 November 2025
Orbit: 1100 x 1107 km, 123.0° (Epoch: 02 December)

Event Time Altitude Azimuth Distance (km) Brightness Sun altitude
Rises 03:50:07 0° 133° (SE) 3,918 6.6 -30.1°
Reaches altitude 10° 03:52:38 10° 137° (SE) 2,962 5.9 -29.7°
Enters shadow 03:58:53 61° 207° (SSW) 1,238 3.2 -28.8°
